Change the Weather History Date:

Sunday, October 14, 2012

  Actual Average Record
Temperature  
Mean Temperature 62 °F -  
Max Temperature 68 °F 54 °F 73 °F (2000)
Min Temperature 56 °F 38 °F 33 °F (2002)
Degree Days  
Heating Degree Days 3    
Growing Degree Days 12 (Base 50)    
Moisture  
Dew Point 60 °F    
Average Humidity 85    
Maximum Humidity 100    
Minimum Humidity 70    
Precipitation  
Precipitation 0.02 in 0.09 in - ()
Sea Level Pressure  
Sea Level Pressure 29.72 in    
Wind  
Wind Speed 13 mph ()    
Max Wind Speed 24 mph    
Max Gust Speed 37 mph    
Visibility 8.5 miles    
Events Rain    
Averages and records for this station are not official NWS values.
T = Trace of Precipitation, MM = Missing Value Source: Averaged Metar Reports

Daily Weather History Graph

Daily Weather History Graph

Search for Another Location

Airport or City:

Trip Planner

Search our weather history database for the weather conditions in past years. The results will help you decide how hot, cold, wet, or windy it might be!

Date:

Astronomy

Oct. 14, 2012 Rise Set
Actual Time 7:43 AM EDT 6:50 PM EDT
Civil Twilight 7:15 AM EDT 7:18 PM EDT
Nautical Twilight 6:43 AM EDT 7:51 PM EDT
Astronomical Twilight 6:10 AM EDT 8:23 PM EDT
Moon 6:41 AM EDT (10/14) 6:09 PM EDT (10/14)
Length of Visible Light 12h 03m
Length of Day
11h 06m
Waning Crescent, 1% of the Moon is Illuminated
Oct 14
Waning Crescent
Oct 15
New
Oct 21
First Quarter
Oct 29
Full
Nov 6
Last Quarter

Hourly Weather History & Observations

Time (EDT) Temp. Dew Point Humidity Pressure Visibility Wind Dir Wind Speed Gust Speed Precip Events Conditions
12:00 AM 60.8 °F 59.0 °F 94% 29.91 in 6.0 mi SSW 12.7 mph - N/A Rain Light Rain Showers
1:00 AM 60.8 °F 60.8 °F 100% 29.90 in 6.0 mi SSW 10.4 mph - N/A Rain Light Rain Showers
1:29 AM - - N/A% - 7.0 mi SSW 12.7 mph - N/A   Overcast
2:00 AM 62 °F 60 °F 90% 29.88 in 7 mi SSW 12.7 mph - - Rain Light Rain Showers
2:00 AM 62.6 °F 60.8 °F 94% 29.88 in 7.0 mi SSW 11.5 mph 19.6 mph N/A   Overcast
3:00 AM 62.6 °F 60.8 °F 94% 29.88 in 7.0 mi SSW 15.0 mph - N/A Rain Light Rain Showers
3:40 AM - - N/A% - 6.0 mi SSW 11.5 mph 17.3 mph N/A   Overcast
3:51 AM - - N/A% - 6.0 mi SSW 11.5 mph 17.3 mph N/A Rain Light Rain Showers
4:00 AM 62.6 °F 60.8 °F 94% 29.87 in 6.0 mi SSW 11.5 mph 17.3 mph N/A Rain Light Rain Showers
4:52 AM - - N/A% - 6.0 mi SSW 9.2 mph - N/A   Overcast
5:00 AM 62.6 °F 62.6 °F 100% 29.86 in 5.0 mi SSW 10.4 mph - N/A   Overcast
6:00 AM 64.4 °F 62.6 °F 94% 29.86 in 5.0 mi SSW 13.8 mph - N/A   Overcast
7:00 AM 64.4 °F 60.8 °F 88% 29.86 in 6.0 mi SSW 12.7 mph - N/A   Mostly Cloudy
8:00 AM 63 °F 60 °F 89% 29.84 in 6 mi SSW 11.5 mph - -   Mist
8:00 AM 62.6 °F 60.8 °F 94% 29.84 in 6.0 mi SSW 10.4 mph - N/A   Overcast
9:00 AM 62.6 °F 60.8 °F 94% 29.83 in 7.0 mi SSW 13.8 mph 19.6 mph N/A   Overcast
10:00 AM 64.4 °F 59.0 °F 83% 29.81 in 7.0 mi SSW 18.4 mph - N/A   Overcast
11:00 AM 64.4 °F 59.0 °F 83% 29.78 in 8.0 mi South 15.0 mph 23.0 mph N/A   Overcast
12:00 PM 66.2 °F 59.0 °F 78% 29.73 in 8.0 mi South 21.9 mph 29.9 mph N/A   Overcast
12:50 PM - - N/A% - 8.0 mi SSW 17.3 mph 32.2 mph N/A Rain Light Rain Showers
1:00 PM 68.0 °F 59.0 °F 73% 29.70 in 10.0 mi SSW 17.3 mph 24.2 mph N/A Rain Light Rain Showers
2:00 PM 67 °F 60 °F 70% 29.70 in 10 mi SSW 24.2 mph - - Rain Light Rain Showers
2:00 PM 68.0 °F 59.0 °F 73% 29.70 in 10.0 mi SSW 19.6 mph 27.6 mph N/A Rain Light Rain Showers
3:00 PM 66.2 °F 59.0 °F 78% 29.68 in 6.0 mi SSW 12.7 mph 19.6 mph N/A Rain Light Rain Showers
4:00 PM 64.4 °F 60.8 °F 88% 29.62 in 8.0 mi South 13.8 mph 24.2 mph N/A Rain Light Rain Showers
4:37 PM - - N/A% - 12.0 mi South 24.2 mph 31.1 mph N/A   Mostly Cloudy
5:00 PM 68.0 °F 60.8 °F 78% 29.59 in 12.0 mi SSW 21.9 mph 32.2 mph N/A   Mostly Cloudy
6:00 PM 66.2 °F 60.8 °F 83% 29.57 in 7.0 mi SSW 15.0 mph 24.2 mph N/A   Mostly Cloudy
7:00 PM 66.2 °F 59.0 °F 78% 29.54 in 12.0 mi SSW 20.7 mph 28.8 mph N/A   Mostly Cloudy
7:48 PM - - N/A% - 10.0 mi South 16.1 mph 21.9 mph N/A Rain Light Rain Showers
8:00 PM 66 °F 60 °F 76% 29.51 in 10 mi South 17.3 mph - - Rain Light Rain Showers
8:00 PM 66.2 °F 60.8 °F 83% 29.51 in 10.0 mi South 17.3 mph 23.0 mph N/A Rain Light Rain Showers
8:36 PM - - N/A% - 15.0 mi SSW 16.1 mph 21.9 mph N/A   Mostly Cloudy
9:00 PM 66.2 °F 59.0 °F 78% 29.49 in 15.0 mi SSW 18.4 mph - N/A   Mostly Cloudy
10:00 PM 64.4 °F 59.0 °F 83% 29.47 in 15.0 mi SSW 19.6 mph 27.6 mph N/A   Mostly Cloudy
11:00 PM 64.4 °F 57.2 °F 77% 29.46 in 15.0 mi SW 21.9 mph 36.8 mph N/A   Mostly Cloudy